QTR75C OTHH-LGAV

Flight info

Callsign QTR75C
Flight time N/A
Altitude 29000
Route DATRI L564 MIGMA/N0517F280 M628 AMBAG/N0487F400 M321 KSA T503 OVANO L768 FIRAS R655 KTN R785 NIKAS M978 LCA M601 VADUS DCT EVENO UM601 RDS UL995 VARIX
Aircraft A359/H-SDE2E3GHIJ3J4J5LM1ORWXY/LB1D1

Departure

Time N/A
Airport Hamad International Airport (OTHH)

Arrival

Time 2026-05-05 03:11
Airport Athens Eleftherios Venizelos International Airport (LGAV)
Time Latitude Longitude Altitude Speed Heading
2026-05-05 01:26 34.19615 37.29854 42950 ft 457 kts 296°
2026-05-05 01:26 34.21439 37.26693 42951 ft 462 kts 302°
2026-05-05 01:27 34.25752 37.20853 42954 ft 467 kts 307°
2026-05-05 01:27 34.30208 37.15201 42947 ft 468 kts 307°
2026-05-05 01:28 34.34721 37.09530 42939 ft 468 kts 307°
2026-05-05 01:28 34.39218 37.03844 42939 ft 468 kts 307°
2026-05-05 01:29 34.43705 36.98140 42948 ft 468 kts 307°
2026-05-05 01:29 34.48193 36.92417 42930 ft 469 kts 307°
2026-05-05 01:30 34.52663 36.86709 42934 ft 470 kts 307°
2026-05-05 01:30 34.57162 36.80958 42936 ft 470 kts 307°
2026-05-05 01:31 34.61659 36.75200 42928 ft 470 kts 307°
2026-05-05 01:31 34.66154 36.69436 42927 ft 470 kts 307°
2026-05-05 01:32 34.70618 36.63708 42929 ft 470 kts 307°
2026-05-05 01:32 34.75109 36.57936 42933 ft 470 kts 307°
2026-05-05 01:33 34.79589 36.52154 42926 ft 470 kts 307°
2026-05-05 01:33 34.84068 36.46365 42928 ft 468 kts 307°
2026-05-05 01:34 34.88486 36.40649 42928 ft 466 kts 307°
2026-05-05 01:34 34.92922 36.34898 42923 ft 465 kts 307°
2026-05-05 01:35 34.97354 36.29143 42919 ft 466 kts 307°
2026-05-05 01:35 35.01788 36.23375 42912 ft 466 kts 307°
2026-05-05 01:36 35.06196 36.17634 42915 ft 468 kts 307°
2026-05-05 01:36 35.10649 36.11823 42921 ft 469 kts 307°
2026-05-05 01:37 35.15106 36.05998 42910 ft 468 kts 307°
2026-05-05 01:37 35.18887 35.99664 42907 ft 457 kts 292°
2026-05-05 01:38 35.20986 35.92532 42902 ft 445 kts 277°
2026-05-05 01:38 35.21225 35.85063 42897 ft 438 kts 261°
2026-05-05 01:39 35.20279 35.77719 42899 ft 438 kts 259°
2026-05-05 01:39 35.19224 35.70384 42900 ft 439 kts 258°
2026-05-05 01:40 35.18138 35.63019 42892 ft 442 kts 258°
2026-05-05 01:40 35.17051 35.55664 42882 ft 443 kts 258°
2026-05-05 01:41 35.15964 35.48267 42899 ft 441 kts 258°
2026-05-05 01:41 35.14879 35.40890 42890 ft 442 kts 258°
2026-05-05 01:42 35.13787 35.33497 42886 ft 442 kts 258°
2026-05-05 01:42 35.12697 35.26148 42889 ft 442 kts 258°
2026-05-05 01:43 35.11594 35.18746 42887 ft 444 kts 258°
2026-05-05 01:43 35.10481 35.11316 42886 ft 446 kts 258°
2026-05-05 01:44 35.09361 35.03861 42891 ft 446 kts 258°
2026-05-05 01:44 35.08244 34.96464 42897 ft 446 kts 259°
2026-05-05 01:45 35.07111 34.88998 42891 ft 449 kts 259°
2026-05-05 01:45 35.05969 34.81500 42894 ft 450 kts 259°
2026-05-05 01:46 35.04823 34.74000 42894 ft 449 kts 258°
2026-05-05 01:46 35.03672 34.66505 42893 ft 449 kts 259°
2026-05-05 01:47 35.02540 34.59080 42894 ft 448 kts 259°
2026-05-05 01:47 35.01404 34.51607 42897 ft 448 kts 259°
2026-05-05 01:48 35.00264 34.44136 42901 ft 448 kts 259°
2026-05-05 01:48 34.99116 34.36653 42897 ft 450 kts 259°
2026-05-05 01:49 34.97968 34.29205 42895 ft 450 kts 259°
2026-05-05 01:49 34.96810 34.21715 42893 ft 449 kts 259°
2026-05-05 01:50 34.95649 34.14248 42898 ft 449 kts 259°
2026-05-05 01:50 34.94481 34.06768 42897 ft 449 kts 259°
2026-05-05 01:51 34.93310 33.99341 42891 ft 450 kts 259°
2026-05-05 01:51 34.92126 33.91859 42892 ft 450 kts 259°
2026-05-05 01:52 34.90914 33.84372 42889 ft 451 kts 259°
2026-05-05 01:52 34.89685 33.76887 42882 ft 450 kts 258°
2026-05-05 01:53 34.88475 33.69420 42882 ft 449 kts 261°
2026-05-05 01:53 34.88219 33.61888 42885 ft 450 kts 275°
2026-05-05 01:54 34.89662 33.54446 42882 ft 454 kts 286°
2026-05-05 01:54 34.91750 33.47156 42884 ft 457 kts 288°
2026-05-05 01:55 34.93930 33.39879 42881 ft 457 kts 288°
2026-05-05 01:55 34.96081 33.32596 42881 ft 457 kts 287°
2026-05-05 01:56 34.98190 33.25348 42881 ft 457 kts 287°
2026-05-05 01:56 35.00296 33.18044 42881 ft 457 kts 287°
2026-05-05 01:57 35.02403 33.10736 42880 ft 457 kts 287°
2026-05-05 01:57 35.04506 33.03422 42884 ft 457 kts 287°
2026-05-05 01:58 35.06588 32.96159 42886 ft 456 kts 287°
2026-05-05 01:58 35.08660 32.88835 42901 ft 456 kts 287°
2026-05-05 01:59 35.10620 32.81477 42885 ft 455 kts 286°
2026-05-05 01:59 35.12559 32.74126 42888 ft 455 kts 286°
2026-05-05 02:00 35.14494 32.66831 42891 ft 454 kts 286°
2026-05-05 02:00 35.16447 32.59488 42897 ft 454 kts 287°
2026-05-05 02:01 35.18395 32.52153 42889 ft 453 kts 287°
2026-05-05 02:01 35.20336 32.44827 42893 ft 453 kts 287°
2026-05-05 02:02 35.22260 32.37545 42900 ft 453 kts 287°
2026-05-05 02:02 35.24191 32.30211 42900 ft 453 kts 287°
2026-05-05 02:03 35.26116 32.22882 42905 ft 452 kts 287°
2026-05-05 02:03 35.28036 32.15548 42911 ft 452 kts 287°
2026-05-05 02:04 35.29936 32.08271 42907 ft 452 kts 287°
2026-05-05 02:04 35.31856 32.00936 42909 ft 452 kts 287°
2026-05-05 02:05 35.33806 31.93627 42909 ft 452 kts 287°
2026-05-05 02:05 35.35758 31.86312 42908 ft 452 kts 287°
2026-05-05 02:06 35.37684 31.79043 42913 ft 452 kts 287°
2026-05-05 02:06 35.39617 31.71716 42911 ft 452 kts 287°
2026-05-05 02:07 35.41545 31.64381 42911 ft 452 kts 287°
2026-05-05 02:07 35.43468 31.57047 42916 ft 452 kts 287°
2026-05-05 02:08 35.45376 31.49756 42922 ft 452 kts 287°
2026-05-05 02:08 35.47292 31.42410 42921 ft 452 kts 287°
2026-05-05 02:09 35.49206 31.35049 42922 ft 453 kts 287°
2026-05-05 02:09 35.51114 31.27689 42922 ft 453 kts 287°
2026-05-05 02:10 35.53021 31.20317 42924 ft 453 kts 287°
2026-05-05 02:10 35.54914 31.12980 42925 ft 454 kts 287°
2026-05-05 02:11 35.56817 31.05582 42928 ft 455 kts 287°
2026-05-05 02:11 35.58717 30.98175 42927 ft 455 kts 287°
2026-05-05 02:12 35.61545 30.87103 42932 ft 455 kts 287°
2026-05-05 02:13 35.63437 30.79675 42928 ft 455 kts 287°
2026-05-05 02:13 35.65325 30.72242 42929 ft 455 kts 287°
2026-05-05 02:14 35.67208 30.64806 42932 ft 455 kts 287°
2026-05-05 02:14 35.69072 30.57420 42934 ft 455 kts 287°
2026-05-05 02:15 35.70945 30.49976 42933 ft 455 kts 287°
2026-05-05 02:15 35.72814 30.42532 42932 ft 455 kts 287°
2026-05-05 02:16 35.74678 30.35084 42939 ft 455 kts 287°
2026-05-05 02:16 35.76536 30.27634 42938 ft 455 kts 287°
2026-05-05 02:17 35.78378 30.20230 42936 ft 455 kts 287°
2026-05-05 02:17 35.80227 30.12771 42937 ft 455 kts 287°
2026-05-05 02:18 35.82071 30.05307 42937 ft 456 kts 287°
2026-05-05 02:18 35.83919 29.97835 42939 ft 456 kts 288°
2026-05-05 02:19 35.85900 29.90464 42941 ft 456 kts 289°
2026-05-05 02:19 35.87953 29.83066 42942 ft 456 kts 289°
2026-05-05 02:20 35.89985 29.75655 42944 ft 456 kts 289°
2026-05-05 02:20 35.91994 29.68246 42947 ft 456 kts 289°
2026-05-05 02:21 35.93982 29.60882 42951 ft 455 kts 289°
2026-05-05 02:21 35.95968 29.53460 42941 ft 455 kts 288°
2026-05-05 02:22 35.97937 29.46031 42956 ft 455 kts 288°
2026-05-05 02:22 35.99913 29.38610 42955 ft 455 kts 288°
2026-05-05 02:23 36.01894 29.31200 42958 ft 455 kts 288°
2026-05-05 02:23 36.03863 29.23830 42957 ft 455 kts 289°
2026-05-05 02:24 36.05843 29.16400 42969 ft 455 kts 288°
2026-05-05 02:24 36.07820 29.08960 42971 ft 456 kts 288°
2026-05-05 02:25 36.09791 29.01518 42976 ft 456 kts 288°
2026-05-05 02:25 36.11744 28.94119 42971 ft 456 kts 289°
2026-05-05 02:26 36.13708 28.86660 42982 ft 456 kts 289°
2026-05-05 02:26 36.15671 28.79185 42983 ft 457 kts 289°
2026-05-05 02:27 36.17630 28.71706 42988 ft 457 kts 288°
2026-05-05 02:27 36.19569 28.64277 42991 ft 456 kts 289°
2026-05-05 02:28 36.21512 28.56811 42992 ft 455 kts 289°
2026-05-05 02:28 36.23446 28.49362 42999 ft 454 kts 289°
2026-05-05 02:29 36.25372 28.41903 43001 ft 454 kts 289°
2026-05-05 02:29 36.27277 28.34493 43002 ft 454 kts 289°
2026-05-05 02:30 36.29190 28.27032 43011 ft 454 kts 289°
2026-05-05 02:30 36.31097 28.19573 43009 ft 454 kts 289°
2026-05-05 02:31 36.33000 28.12111 43022 ft 454 kts 289°
2026-05-05 02:31 36.35222 28.04851 43014 ft 453 kts 294°
2026-05-05 02:32 36.37749 27.97692 43018 ft 452 kts 295°
2026-05-05 02:32 36.40316 27.90562 43020 ft 452 kts 295°
2026-05-05 02:33 36.42878 27.83435 43023 ft 452 kts 295°
2026-05-05 02:33 36.45431 27.76294 43024 ft 452 kts 295°
2026-05-05 02:34 36.47960 27.69204 43024 ft 452 kts 294°
2026-05-05 02:34 36.50500 27.62050 43029 ft 452 kts 294°
2026-05-05 02:35 36.53034 27.54893 43034 ft 452 kts 294°
2026-05-05 02:35 36.55564 27.47732 43030 ft 452 kts 294°
2026-05-05 02:36 36.58073 27.40620 43036 ft 452 kts 294°
2026-05-05 02:36 36.60593 27.33458 43040 ft 452 kts 294°
2026-05-05 02:37 36.63110 27.26292 43039 ft 452 kts 294°
2026-05-05 02:37 36.65622 27.19121 43048 ft 452 kts 294°
2026-05-05 02:38 36.68112 27.11993 43049 ft 451 kts 294°
2026-05-05 02:38 36.70607 27.04820 43048 ft 451 kts 294°
2026-05-05 02:39 36.73098 26.97648 43050 ft 451 kts 294°
2026-05-05 02:39 36.75585 26.90470 43050 ft 451 kts 294°
2026-05-05 02:40 36.78051 26.83335 43051 ft 451 kts 294°
2026-05-05 02:40 36.80528 26.76152 43057 ft 450 kts 294°
2026-05-05 02:41 36.82998 26.68970 43061 ft 450 kts 294°
2026-05-05 02:41 36.85471 26.61786 43061 ft 450 kts 294°
2026-05-05 02:42 36.87916 26.54649 43059 ft 450 kts 294°
2026-05-05 02:42 36.90375 26.47444 43067 ft 451 kts 294°
2026-05-05 02:43 36.92827 26.40233 43067 ft 451 kts 294°
2026-05-05 02:43 36.95274 26.33021 43069 ft 451 kts 294°
2026-05-05 02:44 36.97704 26.25844 43062 ft 451 kts 294°
2026-05-05 02:44 37.00156 26.18628 43073 ft 451 kts 294°
2026-05-05 02:45 37.02607 26.11402 43087 ft 451 kts 294°
2026-05-05 02:45 37.05057 26.04159 43075 ft 452 kts 294°
2026-05-05 02:46 37.07503 25.96909 43077 ft 452 kts 294°
2026-05-05 02:46 37.09931 25.89699 43078 ft 453 kts 294°
2026-05-05 02:47 37.12374 25.82425 43076 ft 453 kts 294°
2026-05-05 02:47 37.14813 25.75146 43079 ft 453 kts 294°
2026-05-05 02:47 37.16030 25.71505 42775 ft 450 kts 294°
2026-05-05 02:48 37.17237 25.67891 42058 ft 451 kts 294°
2026-05-05 02:48 37.18436 25.64299 41239 ft 454 kts 294°
2026-05-05 02:48 37.19655 25.60641 40471 ft 455 kts 294°
2026-05-05 02:48 37.20875 25.56973 39754 ft 456 kts 295°
2026-05-05 02:49 37.22096 25.53300 39058 ft 457 kts 295°
2026-05-05 02:49 37.23319 25.49618 38269 ft 457 kts 295°
2026-05-05 02:49 37.24530 25.45916 37321 ft 460 kts 294°
2026-05-05 02:49 37.25733 25.42176 36304 ft 464 kts 294°
2026-05-05 02:50 37.26938 25.38398 35333 ft 469 kts 294°
2026-05-05 02:50 37.28128 25.34628 34383 ft 473 kts 292°
2026-05-05 02:50 37.29204 25.30705 33351 ft 477 kts 290°
2026-05-05 02:50 37.30228 25.26745 32440 ft 476 kts 290°
2026-05-05 02:51 37.31259 25.22791 31542 ft 477 kts 290°
2026-05-05 02:51 37.32302 25.18832 30618 ft 479 kts 290°
2026-05-05 02:51 37.33358 25.14851 29579 ft 481 kts 290°
2026-05-05 02:51 37.34414 25.10875 28819 ft 477 kts 290°
2026-05-05 02:52 37.35459 25.06943 28110 ft 472 kts 290°
2026-05-05 02:52 37.36483 25.03093 27420 ft 468 kts 290°
2026-05-05 02:52 37.37511 24.99228 26739 ft 464 kts 290°
2026-05-05 02:52 37.38529 24.95398 26061 ft 461 kts 290°
2026-05-05 02:53 37.39540 24.91590 25372 ft 458 kts 290°
2026-05-05 02:53 37.40544 24.87802 24695 ft 455 kts 290°
2026-05-05 02:53 37.41540 24.84041 24025 ft 452 kts 290°
2026-05-05 02:53 37.42528 24.80302 23304 ft 449 kts 290°
2026-05-05 02:54 37.43510 24.76582 22594 ft 445 kts 290°
2026-05-05 02:54 37.44478 24.72909 21924 ft 440 kts 290°
2026-05-05 02:54 37.45422 24.69323 21260 ft 435 kts 290°
2026-05-05 02:54 37.46368 24.65725 20618 ft 431 kts 290°
2026-05-05 02:55 37.47304 24.62160 19954 ft 427 kts 290°
2026-05-05 02:55 37.48231 24.58621 19290 ft 424 kts 290°
2026-05-05 02:55 37.49151 24.55106 18620 ft 421 kts 290°
2026-05-05 02:55 37.50064 24.51614 17893 ft 419 kts 290°
2026-05-05 02:56 37.50969 24.48147 17184 ft 414 kts 290°
2026-05-05 02:56 37.51863 24.44717 16507 ft 409 kts 290°
2026-05-05 02:56 37.52743 24.41334 15819 ft 405 kts 290°
2026-05-05 02:56 37.53602 24.38030 15128 ft 400 kts 290°
2026-05-05 02:57 37.54462 24.34720 14507 ft 394 kts 290°
2026-05-05 02:57 37.55278 24.31453 13873 ft 389 kts 288°
2026-05-05 02:57 37.55662 24.28092 13124 ft 389 kts 275°
2026-05-05 02:57 37.55634 24.24701 12424 ft 385 kts 271°
2026-05-05 02:58 37.55539 24.21412 11791 ft 367 kts 271°
2026-05-05 02:58 37.55447 24.18305 11537 ft 340 kts 271°
2026-05-05 02:58 37.55365 24.15450 11436 ft 313 kts 272°
2026-05-05 02:58 37.55293 24.12854 11339 ft 289 kts 272°
2026-05-05 02:59 37.55228 24.10405 11238 ft 273 kts 272°
2026-05-05 02:59 37.55169 24.08041 11122 ft 269 kts 272°
2026-05-05 02:59 37.55113 24.05685 10989 ft 270 kts 272°
2026-05-05 02:59 37.55055 24.03315 10859 ft 272 kts 272°
2026-05-05 03:00 37.54996 24.00858 10540 ft 287 kts 272°
2026-05-05 03:00 37.54932 23.98322 10164 ft 291 kts 272°
2026-05-05 03:00 37.54863 23.95774 9784 ft 291 kts 272°
2026-05-05 03:00 37.54794 23.93234 9380 ft 290 kts 272°
2026-05-05 03:01 37.54726 23.90732 8956 ft 289 kts 272°
2026-05-05 03:01 37.54657 23.88213 8554 ft 287 kts 272°
2026-05-05 03:01 37.54588 23.85708 8144 ft 285 kts 272°
2026-05-05 03:01 37.54519 23.83215 7738 ft 284 kts 272°
2026-05-05 03:02 37.54450 23.80736 7354 ft 283 kts 272°
2026-05-05 03:02 37.54381 23.78265 6956 ft 282 kts 272°
2026-05-05 03:02 37.54319 23.75804 6567 ft 280 kts 273°
2026-05-05 03:02 37.54565 23.73408 6139 ft 273 kts 292°
2026-05-05 03:03 37.55453 23.71377 5745 ft 266 kts 310°
2026-05-05 03:03 37.56615 23.69575 5335 ft 264 kts 316°
2026-05-05 03:03 37.58056 23.68220 5053 ft 257 kts 337°
2026-05-05 03:03 37.59777 23.67749 4993 ft 254 kts
2026-05-05 03:04 37.61491 23.68222 4996 ft 254 kts 22°
2026-05-05 03:04 37.63087 23.69176 4993 ft 254 kts 26°
2026-05-05 03:04 37.64663 23.70199 4993 ft 255 kts 26°
2026-05-05 03:04 37.66237 23.71218 4993 ft 254 kts 26°
2026-05-05 03:05 37.67815 23.72230 4992 ft 254 kts 26°
2026-05-05 03:05 37.69362 23.73201 4991 ft 245 kts 23°
2026-05-05 03:05 37.70846 23.74076 4999 ft 227 kts 28°
2026-05-05 03:05 37.72115 23.75132 5005 ft 211 kts 35°
2026-05-05 03:06 37.73242 23.76208 4992 ft 196 kts 36°
2026-05-05 03:06 37.74374 23.77264 4838 ft 208 kts 34°
2026-05-05 03:06 37.75551 23.78348 4545 ft 210 kts 35°
2026-05-05 03:06 37.76716 23.79460 4207 ft 210 kts 35°
2026-05-05 03:07 37.77884 23.80570 3878 ft 210 kts 35°
2026-05-05 03:07 37.79029 23.81657 3586 ft 208 kts 34°
2026-05-05 03:07 37.80181 23.82747 3312 ft 205 kts 34°
2026-05-05 03:07 37.81315 23.83825 3043 ft 203 kts 34°
2026-05-05 03:08 37.82428 23.84883 2797 ft 198 kts 33°
2026-05-05 03:08 37.83516 23.85917 2519 ft 193 kts 33°
2026-05-05 03:08 37.84560 23.86910 2272 ft 181 kts 33°
2026-05-05 03:08 37.85531 23.87834 2039 ft 173 kts 33°
2026-05-05 03:09 37.86507 23.88759 1804 ft 177 kts 33°
2026-05-05 03:09 37.87482 23.89688 1539 ft 176 kts 34°
2026-05-05 03:09 37.88429 23.90592 1317 ft 164 kts 34°
2026-05-05 03:09 37.89305 23.91425 1098 ft 152 kts 34°
2026-05-05 03:10 37.90130 23.92220 834 ft 145 kts 35°
2026-05-05 03:10 37.90910 23.92955 669 ft 135 kts 36°
2026-05-05 03:10 37.91661 23.93670 517 ft 136 kts 36°
2026-05-05 03:10 37.92415 23.94387 364 ft 136 kts 36°
2026-05-05 03:11 37.93154 23.95082 297 ft 123 kts 37°
2026-05-05 03:11 37.93717 23.95616 283 ft 74 kts 36°
2026-05-05 03:11 37.94012 23.95899 283 ft 38 kts 35°
2026-05-05 03:11 37.94240 23.96008 282 ft 29 kts
2026-05-05 03:12 37.94332 23.95950 281 ft 12 kts 283°
2026-05-05 03:12 37.94291 23.95890 281 ft 11 kts 217°
2026-05-05 03:12 37.94208 23.95811 282 ft 18 kts 217°
2026-05-05 03:12 37.94088 23.95697 283 ft 25 kts 217°
2026-05-05 03:13 37.93940 23.95557 284 ft 27 kts 218°
2026-05-05 03:13 37.93790 23.95413 288 ft 28 kts 217°
2026-05-05 03:13 37.93635 23.95264 291 ft 28 kts 217°
2026-05-05 03:13 37.93490 23.95127 295 ft 24 kts 217°
2026-05-05 03:14 37.93355 23.94996 294 ft 25 kts 217°
2026-05-05 03:14 37.93212 23.94862 297 ft 26 kts 216°
2026-05-05 03:14 37.93068 23.94726 298 ft 26 kts 217°
2026-05-05 03:14 37.92924 23.94588 300 ft 27 kts 217°
2026-05-05 03:15 37.92774 23.94446 300 ft 27 kts 217°
2026-05-05 03:15 37.92643 23.94322 302 ft 15 kts 216°
2026-05-05 03:15 37.92599 23.94237 302 ft 12 kts 279°
2026-05-05 03:15 37.92648 23.94141 303 ft 15 kts 307°
2026-05-05 03:16 37.92713 23.94029 302 ft 14 kts 306°
2026-05-05 03:16 37.92764 23.93929 300 ft 15 kts 288°
2026-05-05 03:16 37.92749 23.93878 300 ft 4 kts 213°
2026-05-05 03:16 37.92722 23.93852 300 ft 1 kts 217°
2026-05-05 03:17 37.92717 23.93847 300 ft 0 kts 217°